URMT Weather Reports


Display with metric or nautical units.
time (UTC)temp
F
wind
direction
speed
MPH
gust
MPH
rain 1hr
in
rain 24hr
in
rain mn
in
humidity
%
barometer
mb
20260508140041 68 310 13.0 0.0 0.00 0.00 0.00 49 1018.0
20260508133042 69 320 13.0 0.0 0.00 0.00 0.00 49 1018.0
20260508130042 69 320 13.0 0.0 0.00 0.00 0.00 49 1019.0
20260508123043 69 300 13.0 0.0 0.00 0.00 0.00 46 1019.0
20260508120043 69 300 16.0 0.0 0.00 0.00 0.00 49 1019.0
20260508113043 69 300 16.0 0.0 0.00 0.00 0.00 49 1019.0
20260508110042 68 290 18.0 0.0 0.00 0.00 0.00 52 1019.0
20260508103042 66 290 18.0 0.0 0.00 0.00 0.00 55 1019.0
20260508100041 68 290 18.0 0.0 0.00 0.00 0.00 49 1019.0
20260508093043 66 270 20.0 0.0 0.00 0.00 0.00 52 1019.0
20260508090042 60 290 18.0 0.0 0.00 0.00 0.00 63 1019.0
20260508083042 64 300 18.0 0.0 0.00 0.00 0.00 55 1020.0
20260508080041 62 300 16.0 0.0 0.00 0.00 0.00 59 1020.0
20260508073042 62 280 18.0 0.0 0.00 0.00 0.00 67 1020.0
20260508070042 59 280 16.0 0.0 0.00 0.00 0.00 72 1020.0
20260508063042 57 280 16.0 0.0 0.00 0.00 0.00 71 1020.0
20260508060042 57 280 16.0 0.0 0.00 0.00 0.00 67 1020.0
20260508053042 55 280 16.0 0.0 0.00 0.00 0.00 71 1020.0
20260508050043 53 280 13.0 0.0 0.00 0.00 0.00 76 1020.0
20260508043042 53 280 13.0 0.0 0.00 0.00 0.00 71 1020.0
20260508040042 53 290 13.0 0.0 0.00 0.00 0.00 76 1020.0
20260508033042 53 300 13.0 0.0 0.00 0.00 0.00 71 1020.0
20260508030044 53 300 13.0 0.0 0.00 0.00 0.00 71 1019.0
20260508023043 51 290 11.0 0.0 0.00 0.00 0.00 76 1019.0
20260508020042 51 280 16.0 0.0 0.00 0.00 0.00 76 1019.0
20260508013046 53 290 16.0 0.0 0.00 0.00 0.00 71 1019.0
20260508010042 51 290 11.0 0.0 0.00 0.00 0.00 81 1019.0
20260508003042 51 290 11.0 0.0 0.00 0.00 0.00 87 1020.0
20260508000043 53 310 9.0 0.0 0.00 0.00 0.00 81 1020.0
20260507233042 53 310 9.0 0.0 0.00 0.00 0.00 81 1020.0
20260507230043 55 340 7.0 0.0 0.00 0.00 0.00 76 1020.0
20260507223042 55 290 16.0 0.0 0.00 0.00 0.00 76 1019.0
20260507220043 57 300 13.0 0.0 0.00 0.00 0.00 76 1019.0
20260507213042 57 300 16.0 0.0 0.00 0.00 0.00 71 1019.0
20260507210043 59 280 16.0 0.0 0.00 0.00 0.00 67 1019.0
20260507203043 57 210 9.0 0.0 0.00 0.00 0.00 71 1019.0
20260507200043 57 290 13.0 0.0 0.00 0.00 0.00 71 1019.0
20260507193044 57 300 11.0 0.0 0.00 0.00 0.00 71 1019.0
20260507190044 57 290 13.0 0.0 0.00 0.00 0.00 76 1019.0
20260507180044 57 300 11.0 0.0 0.00 0.00 0.00 76 1019.0
20260507173044 57 310 9.0 0.0 0.00 0.00 0.00 76 1019.0
20260507170044 57 300 9.0 0.0 0.00 0.00 0.00 76 1018.0
20260507163046 59 320 11.0 0.0 0.00 0.00 0.00 67 1018.0
20260507160043 60 320 13.0 0.0 0.00 0.00 0.00 63 1018.0
20260507153043 60 320 13.0 0.0 0.00 0.00 0.00 58 1018.0
20260507150043 62 330 16.0 0.0 0.00 0.00 0.00 55 1018.0
20260507143044 64 320 16.0 0.0 0.00 0.00 0.00 55 1018.0